CST,Max TemperatureF,Mean TemperatureF,Min TemperatureF,Max Dew PointF,MeanDew PointF,Min DewpointF,Max Humidity, Mean Humidity, Min Humidity, Max Sea Level PressureIn, Mean Sea Level PressureIn, Min Sea Level PressureIn, Max VisibilityMiles, Mean VisibilityMiles, Min VisibilityMiles, Max Wind SpeedMPH, Mean Wind SpeedMPH, Max Gust SpeedMPH,PrecipitationIn, CloudCover, Events, WindDirDegrees
2013-2-1,64,52,40,46,43,38,97,81,40,30.41,30.34,30.31,10,8,5,9,2,,0.00,1,,95
2013-2-2,66,54,41,54,49,41,100,87,56,30.32,30.26,30.20,10,7,0,12,3,,0.00,1,Fog,120
2013-2-3,68,57,46,52,46,36,100,81,33,30.30,30.20,30.13,10,6,0,58,3,,0.00,1,Fog,268
2013-2-4,66,56,45,57,53,46,100,95,56,30.13,30.02,29.94,10,6,3,13,3,17,0.41,5,Rain,42
2013-2-5,69,62,54,63,59,55,100,96,73,30.04,29.98,29.93,10,4,0,7,2,,0.44,6,Fog-Rain,45
2013-2-6,68,60,51,63,57,52,100,96,78,30.12,30.01,29.93,10,4,0,18,5,20,0.90,7,Fog-Rain,48
2013-2-7,71,62,54,66,60,54,100,93,69,29.97,29.91,29.79,10,6,0,28,11,31,0.52,4,Fog-Rain-Thunderstorm,26
2013-2-8,66,59,52,63,57,52,100,95,82,30.16,30.07,29.97,10,5,0,13,3,17,0.00,5,Fog,322
2013-2-9,66,60,53,63,57,52,96,90,77,30.21,30.11,30.02,10,7,5,139,12,21,0.00,7,,61
2013-2-10,75,70,66,72,68,64,99,93,83,30.02,29.99,29.94,7,6,4,21,13,22,0.00,6,Rain,150
2013-2-11,71,64,57,72,62,57,100,98,88,30.09,30.02,29.99,10,5,0,20,8,26,0.00,8,Fog-Rain,55
2013-2-12,75,67,59,72,65,59,100,96,88,30.02,29.88,29.77,7,6,1,17,10,23,0.00,7,,224
2013-2-13,63,53,43,60,49,41,100,93,82,30.08,29.99,29.85,10,8,6,18,9,24,0.00,3,Rain,321
2013-2-14,59,50,41,45,43,41,100,86,55,30.18,30.10,30.07,10,8,7,9,3,,0.00,1,,359
2013-2-15,62,50,37,46,41,36,100,75,37,30.18,30.13,30.09,10,7,0,14,3,16,0.00,0,,331
2013-2-16,53,44,36,42,33,19,96,64,26,30.32,30.25,30.17,10,8,7,23,10,32,0.00,2,Rain,320
2013-2-17,57,45,33,40,36,32,99,79,41,30.36,30.29,30.24,10,7,5,13,3,,0.00,0,,119
2013-2-18,64,53,42,61,53,40,100,90,73,30.23,30.11,30.01,10,7,6,18,8,26,0.00,5,Rain,128
2013-2-19,66,57,48,63,47,34,100,71,32,30.23,30.13,30.00,10,8,2,18,10,22,0.34,4,Rain-Thunderstorm,355
2013-2-20,59,52,44,45,40,35,74,67,54,30.25,30.13,30.02,10,8,7,21,11,23,0.00,3,,49
2013-2-21,71,62,53,69,59,43,99,85,64,30.02,29.91,29.80,10,7,5,23,12,25,0.00,8,Rain,125
2013-2-22,69,63,57,69,62,55,100,96,77,29.96,29.89,29.86,10,5,0,17,7,17,0.01,8,Fog-Rain,64
2013-2-23,58,56,52,58,56,53,100,96,93,29.95,29.91,29.86,10,7,3,13,8,17,0.16,7,Rain-Thunderstorm,1
2013-2-24,62,55,48,62,56,48,100,97,88,29.96,29.87,29.72,10,6,2,16,7,25,0.30,5,Rain-Thunderstorm,40
2013-2-25,69,64,58,70,60,46,100,91,59,29.74,29.63,29.49,10,6,1,18,8,29,0.31,6,Rain-Thunderstorm,168
2013-2-26,57,52,48,48,43,36,92,73,53,29.95,29.81,29.64,10,8,7,23,14,31,0.01,0,,245
2013-2-27,66,54,43,53,47,36,100,80,32,30.08,29.99,29.94,10,7,1,14,3,20,0.00,1,,242
2013-2-28,57,49,41,47,37,32,85,65,47,30.16,30.10,30.04,10,8,7,115,9,17,0.00,1,,303